SCP
0 0 0 0 0 0 0 0 0 0 0 0 0 0 0 0 0 0 0 0 0 0
0 0 0 0 0 0 0 0 0 0 0 0 0 0 0 0 0 0 0 0 0 0
0 0 0 0 0 0 0 0 0 0 0 0 0 0 0 0 0 0 0 0 0 0
0 0 0 0 0 0 0 0 0 0 0 0 0 0 0 0 0 0 0 0 0 0
0 0 0 0 0 0 0 0 0 0 0 0 0 0 0 0 0 0 0 0 0 0
0 0 0 0 0 0 0 0 0 0 0 0 0 0 0 0 0 0 0 0 0 0
0 0 0 0 0 0 0 0 0 0 0 0 0 0 0 0 0 0 0 0 0 0
0 0 0 0 0 0 0 0 0 0 0 0 0 0 0 0 0 0 0 0 0 0
0 0 0 0 0 0 0 0 0 0 0 0 0 0 0 0 0 0 0 0 0 0
0 0 0 0 0 0 0 0 0 0 0 0 0 0 0 0 0 0 0 0 0 0
0 0 0 0 0 0 0 0 0 0 0 0 0 0 0 0 0 0 0 0 0 0
0 0 0 0 0 0 0 0 0 0 0 0 0 0 0 0 0 0 0 0 0 0
0 0 0 0 0 0 0 0 0 0 0 0 0 0 0 0 0 0 0 0 0 0
0 0 0 0 0 0 0 0 0 0 0 0 0 0 0 0 0 0 0 0 0 0
Wind_Speed_500mb
35 36 38 38 36 36 35 35 32 33 33 34 30 28 29 38 35 33 34 36 38 39
31 32 32 32 32 33 34 36 35 34 38 37 40 42 36 36 30 31 34 36 39 39
28 30 32 32 30 30 32 32 36 40 43 43 41 39 35 30 31 35 34 37 40 40
32 31 30 29 28 26 25 27 32 36 39 40 38 36 34 33 34 32 35 37 38 38
28 31 33 31 29 28 28 28 30 33 35 35 35 35 34 33 30 32 33 36 38 38
29 28 27 27 28 29 28 28 30 32 33 33 32 31 31 29 29 32 32 34 36 39
28 30 32 31 29 27 29 31 33 34 34 33 33 31 29 26 28 29 30 32 34 38
28 30 32 33 33 34 34 33 33 33 32 31 28 27 26 25 27 28 30 33 35 37
30 32 33 34 34 36 37 37 36 33 31 30 29 29 26 27 27 29 31 33 36 33
35 36 36 35 34 35 35 34 32 32 32 30 28 27 26 28 29 29 31 33 35 29
40 39 37 38 37 37 37 35 33 34 32 30 29 27 29 30 32 30 31 31 31 27
34 43 41 40 40 39 37 37 36 34 34 32 31 31 32 34 34 30 29 29 30 26
33 39 46 42 39 38 39 37 39 38 38 36 36 36 34 35 34 32 26 26 25 27
29 33 44 44 42 40 39 40 40 41 41 40 38 35 33 32 32 31 28 25 25 27
Wind_Direction_500mb
246 253 255 253 253 256 256 258 253 244 238 227 225 220 222 230 247 257 263 271 277 279
252 254 257 261 261 257 254 250 241 234 234 223 226 232 235 240 247 263 269 271 275 278
256 258 261 263 264 263 257 250 243 238 232 232 234 234 239 249 261 269 270 276 280 283
263 261 258 258 260 259 252 245 239 237 235 234 232 233 240 257 263 274 278 280 282 284
261 258 257 256 256 254 248 239 232 228 225 225 230 247 258 261 269 275 278 281 284 284
272 269 263 258 252 246 238 228 222 223 227 237 245 248 252 260 271 275 281 285 286 284
257 251 252 250 245 236 228 223 223 226 231 236 240 247 254 261 268 276 281 286 292 293
254 241 235 237 239 240 238 236 233 232 234 237 244 252 259 268 273 279 286 294 303 303
251 243 237 237 235 234 231 228 225 227 230 237 240 247 257 264 272 279 290 298 305 307
252 243 241 243 243 238 234 231 228 229 233 237 244 255 265 274 282 286 290 297 306 306
256 250 246 247 245 237 235 235 235 238 239 243 248 258 268 275 279 280 286 291 297 296
267 246 246 246 246 242 241 241 244 245 246 248 255 263 269 273 273 273 279 283 289 288
281 249 243 246 246 246 246 246 244 245 248 252 257 265 268 267 266 266 272 277 280 279
295 266 240 236 242 243 244 244 245 247 249 253 261 267 270 267 266 274 277 277 275 274
Wind_Speed_850mb
35 36 38 38 36 36 35 35 32 33 33 34 30 28 29 38 35 33 34 36 38 39
31 32 32 32 32 33 34 36 35 34 38 37 40 42 36 36 30 31 34 36 39 39
28 30 32 32 30 30 32 32 36 40 43 43 41 39 35 30 31 35 34 37 40 40
32 31 30 29 28 26 25 27 32 36 39 40 38 36 34 33 34 32 35 37 38 38
28 31 33 31 29 28 28 28 30 33 35 35 35 35 34 33 30 32 33 36 38 38
29 28 27 27 28 29 28 28 30 32 33 33 32 31 31 29 29 32 32 34 36 39
28 30 32 31 29 27 29 31 33 34 34 33 33 31 29 26 28 29 30 32 34 38
28 30 32 33 33 34 34 33 33 33 32 31 28 27 26 25 27 28 30 33 35 37
30 32 33 34 34 36 37 37 36 33 31 30 29 29 26 27 27 29 31 33 36 33
35 36 36 35 34 35 35 34 32 32 32 30 28 27 26 28 29 29 31 33 35 29
40 39 37 38 37 37 37 35 33 34 32 30 29 27 29 30 32 30 31 31 31 27
34 43 41 40 40 39 37 37 36 34 34 32 31 31 32 34 34 30 29 29 30 26
33 39 46 42 39 38 39 37 39 38 38 36 36 36 34 35 34 32 26 26 25 27
29 33 44 44 42 40 39 40 40 41 41 40 38 35 33 32 32 31 28 25 25 27
Wind_Direction_850mb
246 253 255 253 253 256 256 258 253 244 238 227 225 220 222 230 247 257 263 271 277 279
252 254 257 261 261 257 254 250 241 234 234 223 226 232 235 240 247 263 269 271 275 278
256 258 261 263 264 263 257 250 243 238 232 232 234 234 239 249 261 269 270 276 280 283
263 261 258 258 260 259 252 245 239 237 235 234 232 233 240 257 263 274 278 280 282 284
261 258 257 256 256 254 248 239 232 228 225 225 230 247 258 261 269 275 278 281 284 284
272 269 263 258 252 246 238 228 222 223 227 237 245 248 252 260 271 275 281 285 286 284
257 251 252 250 245 236 228 223 223 226 231 236 240 247 254 261 268 276 281 286 292 293
254 241 235 237 239 240 238 236 233 232 234 237 244 252 259 268 273 279 286 294 303 303
251 243 237 237 235 234 231 228 225 227 230 237 240 247 257 264 272 279 290 298 305 307
252 243 241 243 243 238 234 231 228 229 233 237 244 255 265 274 282 286 290 297 306 306
256 250 246 247 245 237 235 235 235 238 239 243 248 258 268 275 279 280 286 291 297 296
267 246 246 246 246 242 241 241 244 245 246 248 255 263 269 273 273 273 279 283 289 288
281 249 243 246 246 246 246 246 244 245 248 252 257 265 268 267 266 266 272 277 280 279
295 266 240 236 242 243 244 244 245 247 249 253 261 267 270 267 266 274 277 277 275 274